This demonstration page uses our WeatherBlox Daily Observations layout. Learn more.

Left ArrowRight Arrow

34.74481, -87.66753

Hourly Observations for February 21, 2021

Temp ( °F °C ) Dew Point ( °F °C ) Humidity (%) Winds ( mph kmh ) Pressure ( in mb ) Visibility ( mi km ) Precip ( " mm )
12:53 am 00:53 Clear 29 -1.7 20 -6.7 69 69 Calm 30.37 1028 10 16 0.00 0.00
1:53 am 01:53 Clear 29 -1.7 20 -6.7 69 69 E 5 7 30.35 1028 10 16 0.00 0.00
2:53 am 02:53 Clear 30 -1.1 21 -6.1 69 69 Calm 30.35 1028 10 16 0.00 0.00
3:53 am 03:53 Clear 30 -1.1 21 -6.1 69 69 ESE 7 11 30.34 1027 10 16 0.00 0.00
4:53 am 04:53 Clear 28 -2.2 20 -6.7 72 72 E 6 9 30.35 1028 10 16 0.00 0.00
5:53 am 05:53 Clear 30 -1.1 20 -6.7 66 66 ESE 5 7 30.36 1028 10 16 0.00 0.00
6:53 am 06:53 Sunny 31 -0.6 21 -6.1 67 67 ESE 5 7 30.35 1028 10 16 0.00 0.00
7:53 am 07:53 Sunny 34 1.1 22 -5.6 61 61 E 8 13 30.36 1028 10 16 0.00 0.00
8:53 am 08:53 Sunny 40 4.4 24 -4.4 53 53 ESE 5 7 30.37 1028 10 16 0.00 0.00
9:53 am 09:53 Sunny 46 7.8 24 -4.4 42 42 SSE 12 19 30.36 1028 10 16 0.00 0.00
10:53 am 10:53 Sunny 50 10 26 -3.3 39 39 SSE 9 15 30.34 1027 10 16 0.00 0.00
11:53 am 11:53 Sunny 53 11.7 23 -5 31 31 S 12 19 30.28 1025 10 16 0.00 0.00
12:53 pm 12:53 Sunny 56 13.3 24 -4.4 29 29 S 13 20 30.25 1024 10 16 0.00 0.00
1:53 pm 13:53 Sunny 58 14.4 26 -3.3 29 29 S 12 19 30.22 1024 10 16 0.00 0.00
2:53 pm 14:53 Sunny 60 15.6 27 -2.8 28 28 S 12 19 30.20 1023 10 16 0.00 0.00
3:53 pm 15:53 Sunny 60 15.6 25 -3.9 26 26 SSW 17 28 30.18 1022 10 16 0.00 0.00
4:53 pm 16:53 Sunny 58 14.4 25 -3.9 28 28 SSW 14 22 30.17 1022 10 16 0.00 0.00
5:53 pm 17:53 Clear 54 12.2 23 -5 30 30 S 7 11 30.17 1022 10 16 0.00 0.00
6:53 pm 18:53 Mostly Cloudy 53 11.7 26 -3.3 35 35 SSE 13 20 30.14 1021 10 16 0.00 0.00
7:53 pm 19:53 Cloudy 54 12.2 27 -2.8 35 35 SSE 12 19 30.13 1020 10 16 0.00 0.00
8:53 pm 20:53 Cloudy 53 11.7 27 -2.8 37 37 SSE 10 17 30.11 1020 10 16 0.00 0.00
9:53 pm 21:53 Cloudy 54 12.2 28 -2.2 37 37 SSE 16 26 30.08 1019 10 16 0.00 0.00
10:53 pm 22:53 Cloudy 55 12.8 27 -2.8 34 34 S 14 22 30.06 1018 10 16 0.00 0.00
11:53 pm 23:53 Cloudy 55 12.8 31 -0.6 40 40 S 18 30 30.06 1018 10 16 0.00 0.00

Powered by AerisWeather